sat.trackr.live / text

‹ back to catalog

FLOCK 4G-30

NORAD 62679 · 2025-009BY

PAYLOAD ACTIVE UNKNOWN

§ Identity

Operator
Country
US
Launch date
2025-01-14
Launch site
AFWTR
Launch vehicle
Mass (kg)
RCS (m²)

Purposes: earth_obs

External: N2YO · Heavens-Above · Gunter

§ Orbital elements

Epoch: 2026-05-24T04:36:22.151520Z

Period
94.10 min
Inclination
97.3919°
Eccentricity
0.0004044
Mean motion
15.30302779 rev/d
Perigee alt
472.1 km
Apogee alt
477.7 km
Semi-major
6,853.0 km
B*
1.0203e-3
RAAN
225.5558°
Arg perigee
75.9264°
Mean anomaly
284.2426°
Rev number
13,287

§ Raw data

FLOCK 4G-301 62679U 25009BY  26144.19192305  .00029922  00000+0  10203-2 0  99942 62679  97.3919 225.5558 0004044  75.9264 284.2426 15.30302779132873

JSON: /api/v1/satellites/62679 · /tle

For live sub-satellite position, see the globe view (requires WebGL).

§ Visibility from observer

Set your observer location to see the next 7 days of passes ≥ 10°. The values pass through the URL so the page stays shareable.

No JS? Fill the form by hand. The geolocation button needs JavaScript.